| time (UTC) | temp C | wind direction | speed KPH | gust KPH | rain 1hr cm | rain 24hr cm | rain mn cm | humidity % | barometer mb |
| 20260506132538 | 13 | 329 | 11.3 | 22.5 | 0.00 | 0.00 | 0.00 | 80 | 1011.3 |
| 20260506132038 | 13 | 338 | 14.5 | 22.5 | 0.00 | 0.00 | 0.00 | 80 | 1011.0 |
| 20260506131537 | 13 | 22 | 16.1 | 22.5 | 0.00 | 0.00 | 0.00 | 79 | 1010.8 |
| 20260506131037 | 13 | 309 | 11.3 | 20.9 | 0.00 | 0.00 | 0.00 | 80 | 1010.8 |
| 20260506130536 | 13 | 52 | 14.5 | 24.1 | 0.00 | 0.00 | 0.00 | 80 | 1010.9 |
| 20260506130137 | 13 | 20 | 14.5 | 24.1 | 0.00 | 0.00 | 0.00 | 80 | 1010.8 |
| 20260506125537 | 13 | 15 | 14.5 | 24.1 | 0.00 | 0.00 | 0.00 | 80 | 1010.9 |
| 20260506125037 | 13 | 10 | 14.5 | 24.1 | 0.00 | 0.00 | 0.00 | 80 | 1010.7 |
| 20260506124533 | 13 | 31 | 16.1 | 24.1 | 0.00 | 0.00 | 0.00 | 80 | 1010.7 |
| 20260506124029 | 13 | 26 | 14.5 | 25.7 | 0.00 | 0.00 | 0.00 | 80 | 1010.7 |
| 20260506123528 | 13 | 34 | 12.9 | 25.7 | 0.00 | 0.00 | 0.00 | 81 | 1010.5 |
| 20260506123028 | 13 | 21 | 11.3 | 27.4 | 0.00 | 0.00 | 0.00 | 81 | 1010.5 |
| 20260506122527 | 13 | 39 | 16.1 | 27.4 | 0.00 | 0.00 | 0.00 | 81 | 1010.3 |
| 20260506122025 | 13 | 30 | 9.7 | 29.0 | 0.00 | 0.00 | 0.00 | 82 | 1010.2 |
| 20260506121525 | 13 | 355 | 12.9 | 29.0 | 0.00 | 0.00 | 0.00 | 82 | 1010.2 |
| 20260506121024 | 13 | 355 | 14.5 | 22.5 | 0.00 | 0.00 | 0.00 | 82 | 1010.0 |
| 20260506120522 | 13 | 45 | 8.0 | 20.9 | 0.00 | 0.00 | 0.00 | 82 | 1010.1 |
| 20260506120025 | 13 | 348 | 12.9 | 25.7 | 0.00 | 0.00 | 0.00 | 82 | 1010.2 |
| 20260506115519 | 13 | 44 | 11.3 | 25.7 | 0.00 | 0.00 | 0.00 | 83 | 1010.0 |
| 20260506115019 | 13 | 360 | 14.5 | 24.1 | 0.00 | 0.00 | 0.00 | 83 | 1010.1 |
| 20260506114518 | 13 | 341 | 11.3 | 20.9 | 0.00 | 0.00 | 0.00 | 83 | 1009.9 |
| 20260506114014 | 14 | 355 | 14.5 | 20.9 | 0.00 | 0.00 | 0.00 | 82 | 1009.8 |
| 20260506113513 | 14 | 12 | 11.3 | 22.5 | 0.00 | 0.00 | 0.00 | 82 | 1009.7 |
| 20260506113012 | 14 | 344 | 14.5 | 24.1 | 0.00 | 0.00 | 0.00 | 82 | 1009.4 |
| 20260506112514 | 14 | 335 | 11.3 | 25.7 | 0.00 | 0.00 | 0.00 | 82 | 1009.3 |
| 20260506112010 | 15 | 340 | 12.9 | 24.1 | 0.00 | 0.00 | 0.00 | 82 | 1009.4 |
| 20260506111512 | 15 | 333 | 14.5 | 24.1 | 0.00 | 0.00 | 0.00 | 82 | 1009.1 |
| 20260506111007 | 15 | 360 | 11.3 | 22.5 | 0.00 | 0.00 | 0.00 | 81 | 1009.1 |
| 20260506110509 | 15 | 35 | 12.9 | 22.5 | 0.00 | 0.00 | 0.00 | 81 | 1008.9 |
| 20260506110006 | 15 | 40 | 12.9 | 20.9 | 0.00 | 0.00 | 0.00 | 81 | 1008.8 |
| 20260506105505 | 15 | 332 | 9.7 | 17.7 | 0.00 | 0.00 | 0.00 | 80 | 1009.0 |
| 20260506105007 | 15 | 20 | 9.7 | 19.3 | 0.00 | 0.00 | 0.00 | 80 | 1008.9 |
| 20260506104502 | 15 | 331 | 9.7 | 19.3 | 0.00 | 0.00 | 0.00 | 80 | 1008.5 |
| 20260506104101 | 15 | 9 | 9.7 | 17.7 | 0.00 | 0.00 | 0.00 | 81 | 1008.6 |
| 20260506103530 | 16 | 301 | 8.0 | 17.7 | 0.00 | 0.00 | 0.00 | 81 | 1008.5 |
| 20260506103029 | 16 | 329 | 8.0 | 17.7 | 0.00 | 0.00 | 0.00 | 82 | 1008.4 |
| 20260506102529 | 16 | 25 | 4.8 | 12.9 | 0.00 | 0.00 | 0.00 | 82 | 1008.3 |
| 20260506102028 | 16 | 42 | 4.8 | 16.1 | 0.00 | 0.00 | 0.00 | 82 | 1008.3 |
| 20260506101529 | 16 | 42 | 9.7 | 16.1 | 0.00 | 0.00 | 0.00 | 82 | 1008.3 |
| 20260506101026 | 16 | 9 | 8.0 | 16.1 | 0.00 | 0.00 | 0.00 | 81 | 1008.1 |
| 20260506100522 | 16 | 360 | 9.7 | 17.7 | 0.00 | 0.00 | 0.00 | 81 | 1008.0 |
| 20260506100021 | 16 | 360 | 9.7 | 17.7 | 0.00 | 0.00 | 0.00 | 80 | 1007.9 |
| 20260506095520 | 16 | 36 | 6.4 | 17.7 | 0.00 | 0.00 | 0.00 | 80 | 1007.9 |
| 20260506095022 | 17 | 360 | 9.7 | 17.7 | 0.00 | 0.00 | 0.00 | 79 | 1007.9 |
| 20260506094517 | 17 | 41 | 11.3 | 17.7 | 0.00 | 0.00 | 0.00 | 78 | 1007.9 |
| 20260506094016 | 17 | 19 | 6.4 | 17.7 | 0.00 | 0.00 | 0.00 | 77 | 1007.8 |
| 20260506093515 | 17 | 35 | 9.7 | 17.7 | 0.00 | 0.00 | 0.00 | 77 | 1007.8 |
| 20260506093016 | 17 | 54 | 8.0 | 14.5 | 0.00 | 0.00 | 0.00 | 77 | 1007.7 |
| 20260506092514 | 17 | 343 | 8.0 | 14.5 | 0.00 | 0.00 | 0.00 | 78 | 1007.8 |
| 20260506092014 | 17 | 15 | 8.0 | 17.7 | 0.00 | 0.00 | 0.00 | 78 | 1007.8 |
| 20260506091513 | 17 | 19 | 9.7 | 17.7 | 0.00 | 0.00 | 0.00 | 78 | 1007.6 |
| 20260506091011 | 17 | 19 | 8.0 | 14.5 | 0.00 | 0.00 | 0.00 | 78 | 1007.7 |
| 20260506090510 | 17 | 47 | 6.4 | 12.9 | 0.00 | 0.00 | 0.00 | 79 | 1007.7 |
| 20260506090009 | 18 | 55 | 3.2 | 14.5 | 0.00 | 0.00 | 0.00 | 79 | 1007.6 |
| 20260506085508 | 18 | 41 | 8.0 | 14.5 | 0.00 | 0.00 | 0.00 | 78 | 1007.6 |
| 20260506085010 | 18 | 53 | 6.4 | 16.1 | 0.00 | 0.00 | 0.00 | 78 | 1007.4 |
| 20260506084507 | 18 | 55 | 8.0 | 16.1 | 0.00 | 0.00 | 0.00 | 78 | 1007.4 |
| 20260506084006 | 18 | 46 | 8.0 | 16.1 | 0.00 | 0.00 | 0.00 | 77 | 1007.2 |
| 20260506083505 | 18 | 63 | 11.3 | 16.1 | 0.00 | 0.00 | 0.00 | 77 | 1007.4 |
| 20260506083004 | 18 | 53 | 8.0 | 17.7 | 0.00 | 0.00 | 0.00 | 77 | 1007.3 |
| 20260506082504 | 18 | 39 | 6.4 | 16.1 | 0.00 | 0.00 | 0.00 | 77 | 1007.3 |
| 20260506082003 | 18 | 29 | 9.7 | 16.1 | 0.00 | 0.00 | 0.00 | 76 | 1007.2 |
| 20260506081502 | 18 | 15 | 9.7 | 16.1 | 0.00 | 0.00 | 0.00 | 76 | 1007.1 |
| 20260506081003 | 18 | 22 | 6.4 | 12.9 | 0.00 | 0.00 | 0.00 | 76 | 1007.2 |
| 20260506080558 | 18 | 17 | 4.8 | 12.9 | 0.00 | 0.00 | 0.00 | 76 | 1007.2 |
| 20260506073053 | 19 | 9 | 8.0 | 12.9 | 0.00 | 0.00 | 0.00 | 75 | 1007.4 |
| 20260506072552 | 20 | 349 | 4.8 | 12.9 | 0.00 | 0.00 | 0.00 | 76 | 1007.4 |
| 20260506072051 | 20 | 355 | 8.0 | 14.5 | 0.00 | 0.00 | 0.00 | 76 | 1007.2 |
| 20260506071551 | 20 | 37 | 9.7 | 14.5 | 0.00 | 0.00 | 0.00 | 76 | 1007.1 |
| 20260506071048 | 20 | 344 | 3.2 | 6.4 | 0.00 | 0.00 | 0.00 | 76 | 1007.5 |
| 20260506070519 | 20 | 332 | 3.2 | 12.9 | 0.00 | 0.00 | 0.00 | 76 | 1007.5 |
| 20260506062012 | 21 | 16 | 4.8 | 9.7 | 0.00 | 0.00 | 0.00 | 75 | 1007.2 |
| 20260506061516 | 21 | 355 | 4.8 | 12.9 | 0.00 | 0.00 | 0.00 | 75 | 1007.3 |
| 20260506061011 | 21 | 360 | 6.4 | 12.9 | 0.00 | 0.00 | 0.00 | 75 | 1007.1 |
| 20260506060511 | 21 | 27 | 6.4 | 14.5 | 0.00 | 0.00 | 0.00 | 75 | 1007.1 |
| 20260506051005 | 22 | 342 | 4.8 | 16.1 | 0.00 | 0.00 | 0.00 | 74 | 1006.8 |
| 20260506050506 | 22 | 347 | 8.0 | 16.1 | 0.00 | 0.00 | 0.00 | 74 | 1006.7 |
| 20260506050503 | 22 | 340 | 8.0 | 16.1 | 0.00 | 0.00 | 0.00 | 74 | 1006.7 |
| 20260506045001 | 24 | 257 | 0.0 | 3.2 | 0.00 | 0.00 | 0.00 | 82 | 1006.6 |
| 20260506044503 | 24 | 254 | 0.0 | 0.0 | 0.00 | 0.00 | 0.00 | 82 | 1006.6 |
| 20260506044001 | 24 | 254 | 0.0 | 0.0 | 0.00 | 0.00 | 0.00 | 82 | 1006.6 |
| 20260506043501 | 24 | 254 | 0.0 | 0.0 | 0.00 | 0.00 | 0.00 | 82 | 1006.4 |
| 20260506043030 | 24 | 254 | 0.0 | 0.0 | 0.00 | 0.00 | 0.00 | 82 | 1006.4 |
| 20260506042530 | 24 | 254 | 0.0 | 3.2 | 0.00 | 0.00 | 0.00 | 82 | 1006.5 |
| 20260506042030 | 24 | 254 | 0.0 | 6.4 | 0.00 | 0.00 | 0.00 | 82 | 1006.3 |
| 20260506041529 | 24 | 254 | 1.6 | 6.4 | 0.00 | 0.00 | 0.00 | 82 | 1006.3 |
| 20260506041030 | 24 | 257 | 3.2 | 6.4 | 0.00 | 0.00 | 0.00 | 82 | 1006.3 |
| 20260506040531 | 24 | 261 | 1.6 | 4.8 | 0.00 | 0.00 | 0.00 | 83 | 1006.3 |
| 20260506040049 | 24 | 340 | 0.0 | 3.2 | 0.00 | 0.00 | 0.00 | 82 | 1006.4 |
| 20260506035526 | 24 | 340 | 0.0 | 1.6 | 0.00 | 0.00 | 0.00 | 82 | 1006.2 |
| 20260506035027 | 24 | 340 | 0.0 | 1.6 | 0.00 | 0.00 | 0.00 | 82 | 1006.1 |
| 20260506034526 | 24 | 340 | 0.0 | 1.6 | 0.00 | 0.00 | 0.00 | 82 | 1006.1 |
| 20260506034025 | 24 | 341 | 0.0 | 1.6 | 0.00 | 0.00 | 0.00 | 82 | 1005.9 |
| 20260506033525 | 24 | 341 | 0.0 | 3.2 | 0.00 | 0.00 | 0.00 | 82 | 1005.8 |
| 20260506033025 | 24 | 341 | 0.0 | 4.8 | 0.00 | 0.00 | 0.00 | 82 | 1005.9 |
| 20260506032525 | 24 | 342 | 0.0 | 9.7 | 0.00 | 0.00 | 0.00 | 82 | 1005.8 |
| 20260506032024 | 24 | 343 | 4.8 | 9.7 | 0.00 | 0.00 | 0.00 | 82 | 1005.8 |
| 20260506031538 | 24 | 342 | 4.8 | 8.0 | 0.00 | 0.00 | 0.00 | 81 | 1005.7 |
| 20260506031025 | 24 | 232 | 0.0 | 11.3 | 0.00 | 0.00 | 0.00 | 81 | 1005.5 |
| 20260506030522 | 24 | 246 | 6.4 | 11.3 | 0.00 | 0.00 | 0.00 | 81 | 1005.2 |
| 20260506030053 | 24 | 150 | 6.4 | 11.3 | 0.00 | 0.00 | 0.00 | 81 | 1004.8 |
| 20260506025554 | 25 | 207 | 6.4 | 12.9 | 0.00 | 0.00 | 0.00 | 80 | 1004.7 |
| 20260506025054 | 25 | 209 | 6.4 | 14.5 | 0.00 | 0.00 | 0.00 | 80 | 1004.8 |
| 20260506024555 | 25 | 226 | 8.0 | 14.5 | 0.00 | 0.00 | 0.00 | 80 | 1004.6 |
| 20260506024051 | 25 | 360 | 6.4 | 11.3 | 0.00 | 0.00 | 0.00 | 80 | 1004.4 |
| 20260506023551 | 25 | 195 | 4.8 | 9.7 | 0.00 | 0.00 | 0.00 | 80 | 1004.3 |
| 20260506023048 | 25 | 215 | 3.2 | 9.7 | 0.00 | 0.00 | 0.00 | 80 | 1004.2 |
| 20260506022548 | 25 | 185 | 6.4 | 14.5 | 0.00 | 0.00 | 0.00 | 79 | 1004.1 |
| 20260506022048 | 25 | 211 | 6.4 | 14.5 | 0.00 | 0.00 | 0.00 | 79 | 1003.8 |
| 20260506021556 | 25 | 360 | 6.4 | 11.3 | 0.00 | 0.00 | 0.00 | 79 | 1003.9 |
| 20260506021047 | 25 | 175 | 6.4 | 14.5 | 0.00 | 0.00 | 0.00 | 79 | 1004.0 |
| 20260506020547 | 25 | 181 | 8.0 | 14.5 | 0.00 | 0.00 | 0.00 | 79 | 1003.8 |
| 20260506020047 | 25 | 176 | 8.0 | 14.5 | 0.00 | 0.00 | 0.00 | 79 | 1003.8 |
| 20260506015548 | 25 | 146 | 9.7 | 17.7 | 0.00 | 0.00 | 0.00 | 79 | 1003.8 |
| 20260506015047 | 25 | 197 | 9.7 | 19.3 | 0.00 | 0.00 | 0.00 | 79 | 1003.9 |
| 20260506014546 | 25 | 186 | 9.7 | 19.3 | 0.00 | 0.00 | 0.00 | 78 | 1003.9 |
| 20260506014050 | 25 | 186 | 9.7 | 16.1 | 0.00 | 0.00 | 0.00 | 78 | 1003.8 |
| 20260506013546 | 25 | 202 | 8.0 | 16.1 | 0.00 | 0.00 | 0.00 | 78 | 1003.9 |
| 20260506013047 | 25 | 182 | 9.7 | 14.5 | 0.00 | 0.00 | 0.00 | 78 | 1003.6 |
| 20260506012544 | 25 | 181 | 8.0 | 16.1 | 0.00 | 0.00 | 0.00 | 78 | 1003.4 |
| 20260506012042 | 26 | 186 | 8.0 | 16.1 | 0.00 | 0.00 | 0.00 | 77 | 1003.5 |
| 20260506011543 | 26 | 178 | 8.0 | 19.3 | 0.00 | 0.00 | 0.00 | 77 | 1003.6 |
| 20260506011043 | 26 | 211 | 9.7 | 19.3 | 0.00 | 0.00 | 0.00 | 76 | 1003.5 |
| 20260506010543 | 26 | 173 | 9.7 | 19.3 | 0.00 | 0.00 | 0.00 | 76 | 1003.5 |
| 20260506010044 | 26 | 175 | 9.7 | 17.7 | 0.00 | 0.00 | 0.00 | 76 | 1003.6 |
| 20260506005541 | 26 | 186 | 11.3 | 19.3 | 0.00 | 0.00 | 0.00 | 76 | 1003.7 |
| 20260506005042 | 26 | 184 | 12.9 | 22.5 | 0.00 | 0.00 | 0.00 | 76 | 1003.6 |
| 20260506004542 | 26 | 169 | 9.7 | 16.1 | 0.00 | 0.00 | 0.00 | 75 | 1003.6 |
| 20260506004041 | 26 | 188 | 9.7 | 17.7 | 0.00 | 0.00 | 0.00 | 75 | 1003.6 |
| 20260506003541 | 26 | 195 | 11.3 | 22.5 | 0.00 | 0.00 | 0.00 | 75 | 1003.5 |
| 20260506003044 | 26 | 175 | 12.9 | 22.5 | 0.00 | 0.00 | 0.00 | 74 | 1003.5 |
| 20260506002510 | 26 | 165 | 12.9 | 24.1 | 0.00 | 0.00 | 0.00 | 74 | 1003.4 |
| 20260506002010 | 26 | 197 | 12.9 | 24.1 | 0.00 | 0.00 | 0.00 | 74 | 1003.5 |
| 20260506001510 | 27 | 183 | 11.3 | 25.7 | 0.00 | 0.00 | 0.00 | 74 | 1003.4 |
| 20260506001011 | 27 | 175 | 9.7 | 25.7 | 0.00 | 0.00 | 0.00 | 73 | 1003.3 |
| 20260506000510 | 27 | 184 | 11.3 | 22.5 | 0.00 | 0.00 | 0.00 | 73 | 1003.3 |
| 20260506000009 | 27 | 209 | 11.3 | 22.5 | 0.00 | 0.00 | 0.00 | 73 | 1003.4 |
| 20260505235504 | 27 | 194 | 9.7 | 25.7 | 0.00 | 0.00 | 0.00 | 72 | 1003.4 |
| 20260505235005 | 27 | 192 | 14.5 | 29.0 | 0.00 | 0.00 | 0.00 | 72 | 1003.3 |
| 20260505234505 | 27 | 192 | 16.1 | 29.0 | 0.00 | 0.00 | 0.00 | 71 | 1003.4 |
| 20260505234005 | 27 | 180 | 12.9 | 20.9 | 0.00 | 0.00 | 0.00 | 71 | 1003.3 |
| 20260505233504 | 27 | 202 | 14.5 | 25.7 | 0.00 | 0.00 | 0.00 | 71 | 1003.0 |
| 20260505233004 | 27 | 180 | 12.9 | 25.7 | 0.00 | 0.00 | 0.00 | 71 | 1003.2 |
| 20260505232507 | 28 | 194 | 12.9 | 27.4 | 0.00 | 0.00 | 0.00 | 71 | 1003.3 |
| 20260505232004 | 28 | 209 | 12.9 | 25.7 | 0.00 | 0.00 | 0.00 | 71 | 1003.2 |
| 20260505231504 | 28 | 202 | 16.1 | 25.7 | 0.00 | 0.00 | 0.00 | 71 | 1003.1 |
| 20260505231004 | 28 | 190 | 12.9 | 22.5 | 0.00 | 0.00 | 0.00 | 71 | 1003.0 |
| 20260505230503 | 27 | 185 | 14.5 | 29.0 | 0.00 | 0.00 | 0.00 | 71 | 1003.0 |
| 20260505230003 | 27 | 180 | 17.7 | 25.7 | 0.00 | 0.00 | 0.00 | 71 | 1002.8 |
| 20260505225533 | 27 | 193 | 16.1 | 25.7 | 0.00 | 0.00 | 0.00 | 71 | 1002.7 |
| 20260505225033 | 27 | 182 | 14.5 | 24.1 | 0.00 | 0.00 | 0.00 | 71 | 1002.8 |
| 20260505224533 | 27 | 169 | 12.9 | 24.1 | 0.00 | 0.00 | 0.00 | 71 | 1003.0 |
| 20260505224032 | 28 | 200 | 12.9 | 24.1 | 0.00 | 0.00 | 0.00 | 71 | 1003.1 |
| 20260505223532 | 28 | 163 | 9.7 | 25.7 | 0.00 | 0.00 | 0.00 | 71 | 1002.9 |
| 20260505223036 | 28 | 176 | 12.9 | 25.7 | 0.00 | 0.00 | 0.00 | 72 | 1003.0 |
| 20260505222506 | 28 | 167 | 9.7 | 20.9 | 0.00 | 0.00 | 0.00 | 72 | 1003.0 |
| 20260505222001 | 28 | 205 | 9.7 | 20.9 | 0.00 | 0.00 | 0.00 | 71 | 1002.9 |
| 20260505221501 | 28 | 178 | 11.3 | 20.9 | 0.00 | 0.00 | 0.00 | 70 | 1002.9 |
| 20260505221001 | 28 | 184 | 11.3 | 20.9 | 0.00 | 0.00 | 0.00 | 71 | 1003.0 |
| 20260505220501 | 28 | 194 | 9.7 | 27.4 | 0.00 | 0.00 | 0.00 | 71 | 1003.0 |
| 20260505220100 | 28 | 182 | 12.9 | 30.6 | 0.00 | 0.00 | 0.00 | 71 | 1002.7 |
| 20260505220001 | 28 | 180 | 12.9 | 30.6 | 0.00 | 0.00 | 0.00 | 70 | 1002.7 |
| 20260505215558 | 28 | 186 | 12.9 | 22.5 | 0.00 | 0.00 | 0.00 | 70 | 1002.8 |
| 20260505215058 | 28 | 193 | 14.5 | 25.7 | 0.00 | 0.00 | 0.00 | 70 | 1002.8 |
| 20260505214600 | 28 | 173 | 9.7 | 22.5 | 0.00 | 0.00 | 0.00 | 70 | 1002.8 |
| 20260505214058 | 28 | 202 | 11.3 | 27.4 | 0.00 | 0.00 | 0.00 | 71 | 1002.8 |
| 20260505213557 | 28 | 195 | 12.9 | 24.1 | 0.00 | 0.00 | 0.00 | 71 | 1003.1 |
| 20260505213059 | 28 | 166 | 11.3 | 30.6 | 0.00 | 0.00 | 0.00 | 70 | 1002.9 |
| 20260505212556 | 28 | 184 | 16.1 | 29.0 | 0.00 | 0.00 | 0.00 | 70 | 1003.1 |
| 20260505212056 | 28 | 185 | 14.5 | 27.4 | 0.00 | 0.00 | 0.00 | 69 | 1003.1 |
| 20260505211610 | 28 | 224 | 16.1 | 27.4 | 0.00 | 0.00 | 0.00 | 69 | 1002.9 |
| 20260505211056 | 28 | 200 | 11.3 | 27.4 | 0.00 | 0.00 | 0.00 | 70 | 1002.9 |
| 20260505210557 | 29 | 193 | 16.1 | 27.4 | 0.00 | 0.00 | 0.00 | 68 | 1003.0 |
| 20260505210059 | 29 | 185 | 11.3 | 19.3 | 0.00 | 0.00 | 0.00 | 70 | 1003.0 |
| 20260505205555 | 29 | 182 | 9.7 | 20.9 | 0.00 | 0.00 | 0.00 | 69 | 1003.3 |
| 20260505205055 | 29 | 178 | 9.7 | 20.9 | 0.00 | 0.00 | 0.00 | 69 | 1003.2 |
| 20260505204552 | 29 | 222 | 11.3 | 20.9 | 0.00 | 0.00 | 0.00 | 68 | 1003.4 |
| 20260505204049 | 29 | 360 | 8.0 | 20.9 | 0.00 | 0.00 | 0.00 | 69 | 1003.4 |
| 20260505203552 | 29 | 190 | 12.9 | 20.9 | 0.00 | 0.00 | 0.00 | 68 | 1003.6 |
| 20260505203050 | 29 | 188 | 12.9 | 22.5 | 0.00 | 0.00 | 0.00 | 69 | 1003.5 |
| 20260505202549 | 28 | 216 | 11.3 | 20.9 | 0.00 | 0.00 | 0.00 | 68 | 1003.7 |
| 20260505202049 | 28 | 200 | 16.1 | 25.7 | 0.00 | 0.00 | 0.00 | 67 | 1003.8 |
| 20260505201546 | 28 | 218 | 14.5 | 25.7 | 0.00 | 0.00 | 0.00 | 67 | 1003.8 |
| 20260505201045 | 28 | 215 | 14.5 | 25.7 | 0.00 | 0.00 | 0.00 | 68 | 1003.7 |
| 20260505200545 | 28 | 191 | 14.5 | 25.7 | 0.00 | 0.00 | 0.00 | 68 | 1003.9 |
| 20260505200048 | 28 | 208 | 12.9 | 25.7 | 0.00 | 0.00 | 0.00 | 69 | 1003.8 |
| 20260505195544 | 28 | 178 | 14.5 | 24.1 | 0.00 | 0.00 | 0.00 | 70 | 1003.8 |
| 20260505195013 | 28 | 207 | 17.7 | 27.4 | 0.00 | 0.00 | 0.00 | 68 | 1003.7 |
| 20260505194514 | 28 | 213 | 17.7 | 27.4 | 0.00 | 0.00 | 0.00 | 68 | 1003.7 |
| 20260505194021 | 28 | 182 | 17.7 | 30.6 | 0.00 | 0.00 | 0.00 | 69 | 1003.7 |
| 20260505193511 | 28 | 167 | 17.7 | 30.6 | 0.00 | 0.00 | 0.00 | 68 | 1003.6 |
| 20260505193011 | 28 | 217 | 19.3 | 37.0 | 0.00 | 0.00 | 0.00 | 67 | 1003.7 |
| 20260505192514 | 28 | 211 | 24.1 | 37.0 | 0.00 | 0.00 | 0.00 | 68 | 1003.8 |
| 20260505192006 | 28 | 171 | 19.3 | 30.6 | 0.00 | 0.00 | 0.00 | 68 | 1003.9 |
| 20260505191507 | 28 | 192 | 22.5 | 30.6 | 0.00 | 0.00 | 0.00 | 68 | 1004.0 |
| 20260505191009 | 28 | 200 | 22.5 | 30.6 | 0.00 | 0.00 | 0.00 | 69 | 1004.1 |
| 20260505190504 | 27 | 197 | 19.3 | 29.0 | 0.00 | 0.00 | 0.00 | 68 | 1004.2 |
| 20260505190003 | 27 | 200 | 17.7 | 32.2 | 0.00 | 0.00 | 0.00 | 69 | 1004.4 |
| 20260505185502 | 27 | 215 | 19.3 | 35.4 | 0.00 | 0.00 | 0.00 | 69 | 1004.4 |
| 20260505185002 | 27 | 217 | 22.5 | 35.4 | 0.00 | 0.00 | 0.00 | 69 | 1004.4 |
| 20260505184501 | 27 | 200 | 19.3 | 30.6 | 0.00 | 0.00 | 0.00 | 69 | 1004.5 |
| 20260505184101 | 27 | 185 | 17.7 | 30.6 | 0.00 | 0.00 | 0.00 | 70 | 1004.5 |
| 20260505183603 | 27 | 223 | 17.7 | 30.6 | 0.00 | 0.00 | 0.00 | 69 | 1004.6 |
| 20260505183058 | 27 | 227 | 20.9 | 32.2 | 0.00 | 0.00 | 0.00 | 71 | 1004.6 |
| 20260505182558 | 27 | 206 | 19.3 | 32.2 | 0.00 | 0.00 | 0.00 | 70 | 1004.6 |
| 20260505182028 | 27 | 206 | 16.1 | 29.0 | 0.00 | 0.00 | 0.00 | 71 | 1004.5 |
| 20260505181529 | 27 | 360 | 16.1 | 33.8 | 0.00 | 0.00 | 0.00 | 71 | 1004.6 |
| 20260505181026 | 27 | 195 | 20.9 | 35.4 | 0.00 | 0.00 | 0.00 | 70 | 1004.7 |
| 20260505180527 | 27 | 183 | 22.5 | 35.4 | 0.00 | 0.00 | 0.00 | 70 | 1004.6 |
| 20260505180028 | 26 | 179 | 17.7 | 35.4 | 0.00 | 0.00 | 0.00 | 72 | 1004.6 |
| 20260505175526 | 26 | 215 | 20.9 | 38.6 | 0.00 | 0.00 | 0.00 | 71 | 1004.4 |
| 20260505175057 | 26 | 186 | 25.7 | 38.6 | 0.00 | 0.00 | 0.00 | 72 | 1004.4 |
| 20260505174602 | 26 | 203 | 25.7 | 38.6 | 0.00 | 0.00 | 0.00 | 72 | 1004.4 |
| 20260505174100 | 26 | 205 | 22.5 | 33.8 | 0.00 | 0.00 | 0.00 | 72 | 1004.6 |
| 20260505173553 | 26 | 201 | 16.1 | 32.2 | 0.00 | 0.00 | 0.00 | 74 | 1004.5 |
| 20260505173052 | 26 | 186 | 20.9 | 37.0 | 0.00 | 0.00 | 0.00 | 74 | 1004.5 |
| 20260505172549 | 25 | 189 | 22.5 | 37.0 | 0.00 | 0.00 | 0.00 | 74 | 1004.5 |
| 20260505172021 | 25 | 232 | 24.1 | 35.4 | 0.00 | 0.00 | 0.00 | 73 | 1004.6 |
| 20260505171523 | 25 | 226 | 25.7 | 35.4 | 0.00 | 0.00 | 0.00 | 74 | 1004.8 |
| 20260505171019 | 25 | 225 | 20.9 | 38.6 | 0.00 | 0.00 | 0.00 | 74 | 1004.7 |
| 20260505170519 | 25 | 215 | 19.3 | 38.6 | 0.00 | 0.00 | 0.00 | 74 | 1004.7 |
| 20260505170020 | 25 | 217 | 24.1 | 32.2 | 0.00 | 0.00 | 0.00 | 74 | 1004.8 |
| 20260505165518 | 25 | 225 | 20.9 | 33.8 | 0.00 | 0.00 | 0.00 | 74 | 1004.8 |
| 20260505165016 | 25 | 238 | 22.5 | 33.8 | 0.00 | 0.00 | 0.00 | 74 | 1004.8 |
| 20260505164515 | 25 | 230 | 20.9 | 40.2 | 0.00 | 0.00 | 0.00 | 74 | 1004.8 |
| 20260505164025 | 25 | 209 | 27.4 | 40.2 | 0.00 | 0.00 | 0.00 | 74 | 1004.6 |
| 20260505163514 | 25 | 220 | 24.1 | 35.4 | 0.00 | 0.00 | 0.00 | 74 | 1004.5 |
| 20260505163013 | 25 | 223 | 22.5 | 41.8 | 0.00 | 0.00 | 0.00 | 74 | 1004.4 |
| 20260505162512 | 25 | 215 | 25.7 | 41.8 | 0.00 | 0.00 | 0.00 | 74 | 1004.5 |
| 20260505162011 | 25 | 232 | 24.1 | 40.2 | 0.00 | 0.00 | 0.00 | 75 | 1004.6 |
| 20260505161512 | 25 | 200 | 24.1 | 43.5 | 0.00 | 0.00 | 0.00 | 75 | 1004.5 |
| 20260505161014 | 25 | 226 | 22.5 | 43.5 | 0.00 | 0.00 | 0.00 | 75 | 1004.6 |
| 20260505160511 | 25 | 202 | 24.1 | 38.6 | 0.00 | 0.00 | 0.00 | 74 | 1004.7 |
| 20260505153031 | 23 | 206 | 24.1 | 33.8 | 0.00 | 0.00 | 0.00 | 77 | 1005.0 |
| 20260505152531 | 23 | 208 | 20.9 | 37.0 | 0.00 | 0.00 | 0.00 | 79 | 1004.9 |
| 20260505152030 | 23 | 223 | 19.3 | 32.2 | 0.00 | 0.00 | 0.00 | 79 | 1005.0 |
| 20260505151526 | 23 | 229 | 17.7 | 33.8 | 0.00 | 0.00 | 0.00 | 79 | 1005.0 |
| 20260505151025 | 23 | 218 | 22.5 | 38.6 | 0.00 | 0.00 | 0.00 | 80 | 1004.9 |
| 20260505150524 | 23 | 209 | 20.9 | 37.0 | 0.00 | 0.00 | 0.00 | 80 | 1005.1 |
| 20260505140513 | 22 | 196 | 20.9 | 32.2 | 0.00 | 0.00 | 0.00 | 81 | 1005.0 |